Location: Bear Branch Nature Center
(39.6445°N, 76.9901°W)
Time: 16:51:27
(UTC-04:00)

Daily predictions for brighter satellites

Satellite Brightness Start Highest point End
(mag) Time Altitude Azimuth Time Altitude Azimuth Time Altitude Azimuth
Cosmos 2082 3.9 21:01:29 10° SSW 21:07:06 80° WNW 21:12:46 10° NNE
Cosmos 1954 Rocket 4.2 21:05:31 10° SSW 21:10:44 82° WNW 21:15:56 10° NNE
Cosmos 614 Rocket 4.0 21:07:22 10° S 21:12:32 69° ESE 21:17:42 10° NNE
Cosmos 2297 Rocket 2.5 21:07:07 10° SSW 21:12:45 77° WNW 21:18:27 10° NNE
SL-19 R/B 4.4 21:08:38 10° SSE 21:14:21 85° WSW 21:19:57 10° NNW
USA 234 3.8 21:10:32 10° ENE 21:16:21 34° SE 21:22:09 10° S
Cosmos 1850 Rocket 4.2 21:11:27 10° S 21:16:26 51° ESE 21:21:28 10° NNE
Tiangong 1 1.4 21:16:18 10° W 21:19:05 59° NNW 21:21:51 10° ENE
Cosmos 2221 3.1 21:16:23 10° N 21:20:34 42° ENE 21:24:44 10° SSE
Milstar 3 Cent rocket 4.0 21:20:02 10° WSW 21:26:10 36° S 21:37:26 10° ESE
Okean 3 Rocket 3.8 21:22:06 10° S 21:26:28 52° E 21:30:50 10° NNE
ERS-1 Rocket 3.4 21:22:11 10° SE 21:26:59 47° ENE 21:31:48 10° N
ATLAS 5 CENTAUR R/B 1.7 21:24:53 10° SSW 21:29:28 79° ESE 21:34:29 10° NE
Cosmos 1939 Rocket 3.2 21:27:41 10° S 21:31:38 65° WSW 21:35:41 10° NNW
YAOGAN 6 2.6 21:28:18 10° SSE 21:31:55 80° ENE 21:35:36 10° N
H-2A R/B 3.6 21:29:42 10° ESE 21:33:48 23° ENE 21:37:58 10° NNE
Cosmos 1726 4.0 21:33:49 10° NNE 21:36:13 16° ENE 21:38:07 12° ESE
Cosmos 1340 Rocket 3.2 21:34:11 10° SSW 21:38:11 69° W 21:42:15 10° N
Cosmos 1184 Rocket 3.8 21:35:15 10° SSW 21:38:30 51° WNW 21:41:49 10° N
Cosmos 1818 3.6 21:35:14 10° NNW 21:40:42 72° ENE 21:45:22 14° SE
Cosmos 1741 Rocket 4.0 21:35:58 10° SSW 21:41:16 84° ESE 21:46:37 10° NNE
Cosmos 1766 Rocket 4.2 21:38:13 11° SSE 21:42:02 35° E 21:46:00 10° NNE
Cosmos 2237 Rocket 3.5 21:37:21 10° NW 21:42:29 37° WSW 21:47:37 10° S
NOSS 3-4 (A) 4.2 21:36:11 10° NW 21:43:12 63° WSW 21:50:38 10° SSE
NOSS 3-4 (C) 4.2 21:36:17 10° NW 21:43:18 64° WSW 21:50:45 10° SSE
Terra 3.9 21:41:44 10° E 21:43:42 13° ENE 21:45:41 10° NE
USA 245 4.1 21:46:50 17° ESE 21:48:53 31° ENE 21:52:29 10° N
Resurs 01 Rocket 4.3 21:50:02 10° SW 21:52:28 15° W 21:54:55 10° WNW
SL-08 RB Rocket 4.5 21:49:54 16° SE 21:53:02 37° ENE 21:57:18 10° N
Cosmos 2227 Rocket 4.5 21:51:53 10° WSW 21:56:39 28° WNW 22:01:27 10° N
Cosmos 2228 Rocket 4.5 21:53:27 10° NNE 21:57:14 25° ENE 21:59:30 17° ESE
H-2A R/B 4.3 21:57:28 10° E 21:59:06 12° ENE 22:00:44 10° NE
Cosmos 1674 2.7 21:56:12 10° S 21:59:59 82° W 22:03:45 10° N
Helios 1B rocket 4.3 21:59:06 10° N 22:02:49 33° WNW 22:06:32 10° SW
H-2A ROCKET BODY 3.7 21:59:54 10° S 22:03:01 19° SE 22:09:41 10° E
Atlas Centaur 2 2.9 22:00:58 10° SW 22:03:03 15° SSW 22:03:34 14° S
Cosmos 1459 Rocket 4.0 21:56:45 10° N 22:03:04 82° E 22:08:39 13° S
Cosmos 2084 4.0 21:59:41 10° SW 22:03:37 56° NW 22:07:25 10° NNE
Cosmos 1908 3.3 22:01:16 10° N 22:05:09 77° W 22:08:10 16° S
ARGOS 3.2 22:01:30 17° SSE 22:05:42 67° ENE 22:11:06 10° N
MetOp-A 4.1 22:01:21 14° SSE 22:05:55 87° ENE 22:11:19 10° NNW
Cosmos 2100 Rocket 4.1 21:59:38 10° N 22:05:58 88° W 22:11:58 12° S
SL-16 R/B 2.7 22:01:19 10° NNW 22:06:52 58° WSW 22:11:44 13° S
Cosmos 2061 Rocket 4.0 22:03:32 10° N 22:09:57 84° E 22:15:28 15° S
ERBS 4.4 22:09:15 10° NNW 22:11:48 20° NE 22:13:54 12° ENE
KORONAS-FOTON 3.7 22:10:27 13° S 22:13:50 85° W 22:17:38 10° N
Cosmos 2123 Rocket 4.1 22:11:01 16° SSE 22:15:51 56° E 22:21:54 10° NNE
Cosmos 2173 Rocket 4.1 22:11:19 10° N 22:17:29 78° W 22:23:00 14° S
Cosmos 2208 Rocket 4.4 22:12:36 10° NNW 22:17:53 63° WSW 22:21:57 17° S
Cosmos 1486 Rocket 4.5 22:20:43 23° SSE 22:23:26 41° ESE 22:28:22 10° NNE
SPOT 1/Viking Rocket 3.5 22:25:32 26° SSE 22:28:30 73° ENE 22:33:39 10° N
Cosmos 841 Rocket 4.5 22:25:23 10° N 22:30:10 34° ENE 22:32:30 24° ESE
Cosmos 1242 Rocket 4.0 22:28:59 10° NNW 22:32:25 35° W 22:34:53 16° SSW
Cosmos 220 Rocket 4.0 22:30:12 24° S 22:32:45 64° ESE 22:37:07 10° NNE
Cosmos 1763 Rocket 4.0 22:27:54 10° N 22:32:49 45° ENE 22:35:00 28° ESE
Cosmos 1802 Rocket 4.4 22:33:05 10° NNW 22:39:06 61° W 22:43:58 16° SSW
Cosmos 1725 Rocket 3.9 22:33:42 10° N 22:39:59 79° E 22:43:35 27° SSE
SPOT 5 3.2 22:37:41 23° S 22:40:36 62° WSW 22:45:38 10° NNW
Cosmos 2058 3.5 22:41:53 36° ESE 22:42:32 39° E 22:46:27 10° NNE
Cosmos 1408 Rocket 4.5 22:39:20 11° SSW 22:43:18 45° W 22:47:28 10° N
Cosmos 371 Rocket 3.3 22:39:05 10° NNW 22:43:55 71° ENE 22:45:44 37° SE
Lacrosse 5 1.8 22:39:29 10° NW 22:44:34 79° NE 22:46:42 35° SE
deb Chang Zheng 4 4.3 22:45:21 10° NNE 22:49:21 34° E 22:49:38 34° ESE
Meteor 1-27 4.5 22:45:05 10° N 22:50:49 57° ENE 22:53:07 34° SE
CZ-4C R/B 4.0 22:56:27 13° E 22:56:27 13° E 22:57:49 10° ENE
Tiangong 1 1.8 22:52:13 10° WNW 22:54:53 41° N 22:55:09 40° NNE
Abrixas rocket 3.2 22:53:03 10° NW 22:56:09 40° NNE 22:56:48 35° NE
RESURS DK-1 2.6 22:52:55 10° NNW 22:57:02 60° WSW 22:58:06 43° SSW
USA 234 3.6 22:53:07 10° NE 22:59:36 67° NW 23:06:03 10° WSW
EO 1 Delta rocket 4.4 22:59:49 27° SSW 23:02:08 52° W 23:06:39 10° NNW
Cosmos 1500 Rocket 3.6 23:01:39 39° SSW 23:03:16 83° W 23:07:45 10° N
Cosmos 2151 2.9 23:02:31 51° S 23:03:35 83° E 23:07:54 10° N
SL-14 R/B 4.2 23:02:08 25° SW 23:04:06 46° W 23:07:55 10° N
Cosmos 1626 2.2 23:05:11 59° E 23:05:11 59° E 23:08:47 10° NNE
Landsat 7 3.9 23:04:12 40° S 23:05:52 71° WSW 23:10:38 10° NNW
Cosmos 2263 Rocket 2.0 23:04:26 33° S 23:06:59 73° ESE 23:12:34 10° NNE
Cosmos 1503 Rocket 4.1 23:08:10 46° SE 23:09:14 54° ESE 23:14:17 10° NNE
Cosmos 1300 3.7 23:05:40 10° NNW 23:09:16 39° W 23:10:18 32° SW
Cosmos 1726 3.8 23:08:25 10° NNW 23:11:33 26° W 23:12:45 22° WSW
H-2A R/B 2.9 23:10:15 26° SSW 23:12:51 46° W 23:18:03 10° NNW
CARTOSAT-1 3.5 23:12:30 57° S 23:13:20 82° WSW 23:17:40 10° NNW
Terra 1.9 23:19:38 50° S 23:20:48 72° WSW 23:25:34 10° NNW
CZ-4 R/B 3.7 23:17:26 10° NNE 23:22:18 73° ESE 23:23:08 58° SSE
Cosmos 1805 Rocket 4.0 23:22:29 45° E 23:22:29 45° E 23:26:27 10° NNE
Cosmos 1633 Rocket 4.4 23:28:52 27° ENE 23:28:52 27° ENE 23:31:58 10° NNE
CZ-4B R/B 3.5 23:26:03 10° NNE 23:31:21 72° ESE 23:32:19 57° SSE
SL-19 R/B 4.3 23:26:38 10° N 23:31:59 76° WNW 23:34:17 36° SSW
Cosmos 2233 Rocket 4.2 23:27:06 10° NNW 23:33:14 63° W 23:35:40 37° SSW
H-2A R/B 2.2 23:34:10 58° SW 23:34:37 62° WSW 23:38:51 10° NNW
Cosmos 540 Rocket 3.6 23:30:08 10° NNW 23:35:16 62° ENE 23:36:05 54° ESE
Cosmos 1151 Rocket 3.9 23:32:46 10° NNW 23:36:55 42° W 23:37:42 38° WSW
CZ-2C R/B 4.4 23:37:55 28° E 23:39:29 32° ENE 23:44:27 10° N
Cosmos 1844 Rocket 3.8 23:41:56 27° E 23:41:56 27° E 23:45:59 10° NE
IGS 5A 4.3 23:41:12 38° WSW 23:41:34 39° W 23:45:30 10° NNW
Delta 2 Rocket 4.4 23:37:23 10° WSW 23:41:58 47° SSW 23:41:58 47° SSW
Cosmos 1455 2.4 23:39:11 10° N 23:42:40 69° NW 23:42:40 69° NW
Cosmos 1869 4.0 23:40:50 10° N 23:44:06 44° NE 23:44:06 44° NE
Cosmos 304 Rocket 3.6 23:42:47 10° NNW 23:47:35 86° WSW 23:47:54 78° S
Spot 4 3.8 23:47:15 67° SSW 23:47:49 76° WSW 23:52:42 10° NNW
ERBS 4.2 23:45:24 10° WNW 23:47:11 26° WNW 23:47:11 26° WNW
CZ-4C R/B 3.4 23:49:57 83° NNE 23:49:57 83° NNE 23:54:14 10° NNW
Cosmos 1943 3.7 23:44:49 10° NW 23:50:12 46° WSW 23:51:21 41° SW
Cosmos 1354 Rocket 4.4 23:51:23 37° SW 23:53:15 58° WNW 23:58:25 10° N
